FENGYUN 1C DEB, 38724

Orbit data source: Space-Track

FENGYUN 1C DEB, 38724 is space debris in SSO originally from a launch on Mon, 10 May 1999 UTC launched from the Taiyaun Space Center, China (TSC). Fengyun 1C debris stems from the Chinese weather satellite Fengyun-1C, which was intentionally destroyed by a Chinese anti-satellite missile in 2007. This event dramatically increased the amount of space debris, with thousands of trackable fragments posing hazards to satellites and human spaceflight. The Fengyun 1C debris cloud has become a focal point in discussions about space sustainability and the need for international regulations to prevent the creation of new debris.

Loading next visibility...
Identifier
38724, 1999-025ETR
Orbit
SSO
Country
Flag of CNCN / PRC
Related business
Manufacturer
Unknown
Mission
Spacecraft
Bus & Motor
Unknown
Mass
Unknown
Launch date (UTC)
1999-05-10 (27 years ago)
Launch vehicle
Unknown
Launch site
Taiyaun Space Center, China (TSC)
Object type
Payload
Rocket body
Debris
Shape & HBR
Unknown shape, 0.1 m
Radar Cross Section
Small (<0.1 m²)

Expand to show TLE details & history
Last TLE update: 1 day ago

TLE from 1 day ago
0 FENGYUN 1C DEB
1 38724U 99025ETR 26145.49149148  .00004766  00000-0  22204-2 0  9992
2 38724  98.7320 156.3518 0118104 323.8001  35.5222 14.17327287589425
Epoch: 2026-05-25T11:47Z
TLE epoch observation values (Epoch: 2026-05-25T11:47:44.863Z)
Latitude
-0.00005°
Longitude
96.33636°
Altitude
768.318 km
Speed
7.506 km/s
True Right ascension
10h 25m 24s
True Declination
0° 00' 00"
Sunlit
Object was in daylight at epoch
Visualization orbit readout
Latitude
Unknown
Longitude
Unknown
Altitude
Unknown
Speed
Unknown
Apparent Right ascension
Unknown
Apparent Declination
Unknown
Sunlit
N/A
Visualization observer readout
Local Sidereal Time
21:31:47
Azimuth
Unknown
Elevation
Unknown
Doppler factor
Unknown
Orbital elements
Apogee altitude
916.718 km
Perigee altitude
746.419 km
Semi-major axis
7,209.706 km
Eccentricity
0.01181
Inclination
98.732°
RAAN
156.3518°
Arg. of periapsis
323.8001°
True anomaly
36.31807°
Mean anomaly
35.5222°
Eccentric anomaly
35.91917°
Mean motion
3.54541 °/min
Orbital period
101.54 mins
BSTAR
0.0022204
Loading maneuver chart data...
Computing Atmospheric mass density...
Loading historical data...
Loading historical data...
Loading historical data...
Loading historical data...
Loading historical data...
Loading historical data...
Loading historical data...

Documentation

Showing up to 5 results
|